2019-07-22 00:05:13 r, 18.61m,0000000004Hz,0000145006c,0000000.315s, 032.2C,00002195
2019-07-22 00:15:13 r, 18.60m,0000000003Hz,0000142886c,0000000.310s, 032.2C,00002195
2019-07-22 00:25:13 r, 18.57m,0000000003Hz,0000139027c,0000000.302s, 032.2C,00002195
2019-07-22 00:35:13 r, 18.54m,0000000003Hz,0000135562c,0000000.294s, 031.9C,00002195
2019-07-22 00:45:13 r, 18.52m,0000000004Hz,0000132752c,0000000.288s, 031.9C,00002195
2019-07-22 00:55:13 r, 18.51m,0000000003Hz,0000130561c,0000000.283s, 031.5C,00002195
2019-07-22 01:05:13 r, 18.49m,0000000004Hz,0000128640c,0000000.279s, 031.5C,00002195
2019-07-22 01:15:13 r, 18.47m,0000000003Hz,0000126714c,0000000.275s, 031.5C,00002195
2019-07-22 01:25:13 r, 18.46m,0000000004Hz,0000125498c,0000000.272s, 031.5C,00002195
2019-07-22 01:35:13 r, 18.43m,0000000004Hz,0000122844c,0000000.267s, 031.2C,00002195
2019-07-22 01:45:13 r, 18.41m,0000000004Hz,0000120748c,0000000.262s, 031.2C,00002195
2019-07-22 01:55:13 r, 18.39m,0000000004Hz,0000118222c,0000000.257s, 031.2C,00002195
2019-07-22 02:05:13 r, 18.38m,0000000004Hz,0000117154c,0000000.254s, 031.2C,00002195
2019-07-22 02:15:13 r, 18.37m,0000000004Hz,0000115904c,0000000.252s, 030.9C,00002195
2019-07-22 02:25:13 r, 18.36m,0000000005Hz,0000114261c,0000000.248s, 030.9C,00002195
2019-07-22 02:35:14 r, 18.36m,0000000004Hz,0000114214c,0000000.248s, 030.9C,00002195
2019-07-22 02:45:13 r, 18.34m,0000000004Hz,0000113194c,0000000.246s, 030.9C,00002195
2019-07-22 02:55:13 r, 18.31m,0000000004Hz,0000110405c,0000000.240s, 030.9C,00002195
2019-07-22 03:05:13 r, 18.31m,0000000004Hz,0000110261c,0000000.239s, 030.6C,00002195
2019-07-22 03:15:13 r, 18.29m,0000000004Hz,0000108523c,0000000.236s, 030.6C,00002195
2019-07-22 03:25:13 r, 18.28m,0000000005Hz,0000107426c,0000000.233s, 030.6C,00002195
2019-07-22 03:35:13 r, 18.27m,0000000004Hz,0000105699c,0000000.229s, 030.6C,00002195
2019-07-22 03:45:13 r, 18.26m,0000000005Hz,0000104595c,0000000.227s, 030.6C,00002195
2019-07-22 03:55:13 r, 18.23m,0000000005Hz,0000101818c,0000000.221s, 030.6C,00002195
2019-07-22 04:05:13 r, 18.18m,0000000005Hz,0000097046c,0000000.211s, 030.2C,00002195
2019-07-22 04:15:13 r, 18.06m,0000000006Hz,0000087169c,0000000.189s, 030.2C,00002195
2019-07-22 04:25:13 r, 17.82m,0000000007Hz,0000069782c,0000000.151s, 029.9C,00002195
2019-07-22 04:35:13 r, 17.36m,0000000010Hz,0000046022c,0000000.100s, 029.9C,00002195
2019-07-22 04:45:13 r, 16.55m,0000000021Hz,0000021776c,0000000.047s, 029.9C,00002195
2019-07-22 04:55:13 r, 15.15m,0000000076Hz,0000005985c,0000000.013s, 029.6C,00002195
2019-07-22 05:05:13 r, 13.49m,0000000357Hz,0000000000c,0000000.000s, 029.6C,00002195
2019-07-22 05:15:13 r, 11.90m,0000001542Hz,0000000000c,0000000.000s, 029.3C,00002195
2019-07-22 05:25:13 r, 10.42m,0000006057Hz,0000000000c,0000000.000s, 029.3C,00002195
2019-07-22 05:35:13 r, 09.19m,0000018817Hz,0000000000c,0000000.000s, 029.3C,00002195
2019-07-22 05:45:13 r, 08.28m,0000043336Hz,0000000000c,0000000.000s, 029.3C,00002195
2019-07-22 05:55:13 r, 07.52m,0000087406Hz,0000000000c,0000000.000s, 029.3C,00002195
2019-07-22 06:05:13 r, 06.84m,0000164825Hz,0000000000c,0000000.000s, 029.3C,00002195
2019-07-22 06:15:13 r, 06.32m,0000263055Hz,0000000000c,0000000.000s, 029.0C,00002195
2019-07-22 06:25:13 r, 05.97m,0000364966Hz,0000000000c,0000000.000s, 029.3C,00002195
2019-07-22 06:35:13 r, 00.00m,0000468875Hz,0000000000c,0000000.000s, 029.3C,00002195
2019-07-22 06:45:13 r, 00.00m,0000568945Hz,0000000000c,0000000.000s, 029.6C,00002195
2019-07-22 06:55:13 r, 00.00m,0000564025Hz,0000000000c,0000000.000s, 029.9C,00002195
2019-07-22 07:05:13 r, 00.00m,0000564059Hz,0000000000c,0000000.000s, 030.2C,00002195
2019-07-22 07:15:13 r, 00.00m,0000564071Hz,0000000000c,0000000.000s, 030.6C,00002195
2019-07-22 07:25:13 r, 00.00m,0000564115Hz,0000000000c,0000000.000s, 030.9C,00002195
2019-07-22 07:35:13 r, 00.00m,0000564146Hz,0000000000c,0000000.000s, 031.2C,00002195
2019-07-22 07:45:13 r, 00.00m,0000564157Hz,0000000000c,0000000.000s, 031.5C,00002195
2019-07-22 07:55:13 r, 00.00m,0000564201Hz,0000000000c,0000000.000s, 032.2C,00002195
2019-07-22 08:05:13 r, 00.00m,0000564344Hz,0000000000c,0000000.000s, 032.5C,00002195
2019-07-22 08:15:13 r, 00.00m,0000564277Hz,0000000000c,0000000.000s, 033.1C,00002195
2019-07-22 08:25:13 r, 00.00m,0000564445Hz,0000000000c,0000000.000s, 033.5C,00002195
2019-07-22 08:35:13 r, 00.00m,0000564409Hz,0000000000c,0000000.000s, 034.1C,00002195
2019-07-22 08:45:13 r, 00.00m,0000564485Hz,0000000000c,0000000.000s, 034.4C,00002195
2019-07-22 08:55:13 r, 00.00m,0000564537Hz,0000000000c,0000000.000s, 035.1C,00002195
2019-07-22 09:05:13 r, 00.00m,0000564618Hz,0000000000c,0000000.000s, 035.7C,00002195
2019-07-22 09:15:13 r, 00.00m,0000564828Hz,0000000000c,0000000.000s, 037.3C,00002195
2019-07-22 09:25:13 r, 00.00m,0000565071Hz,0000000000c,0000000.000s, 039.9C,00002195
2019-07-22 09:35:13 r, 00.00m,0000565247Hz,0000000000c,0000000.000s, 042.2C,00002195
2019-07-22 09:45:13 r, 00.00m,0000565425Hz,0000000000c,0000000.000s, 043.8C,00002195
2019-07-22 09:55:13 r, 00.00m,0000565392Hz,0000000000c,0000000.000s, 044.8C,00002195
2019-07-22 10:05:13 r, 00.00m,0000565519Hz,0000000000c,0000000.000s, 046.0C,00002195
2019-07-22 10:15:13 r, 00.00m,0000565666Hz,0000000000c,0000000.000s, 047.0C,00002195
2019-07-22 10:25:13 r, 00.00m,0000565635Hz,0000000000c,0000000.000s, 047.7C,00002195
2019-07-22 10:35:13 r, 00.00m,0000565698Hz,0000000000c,0000000.000s, 048.3C,00002195
2019-07-22 10:45:13 r, 00.00m,0000565721Hz,0000000000c,0000000.000s, 048.9C,00002195
2019-07-22 10:55:13 r, 00.00m,0000565799Hz,0000000000c,0000000.000s, 049.9C,00002195
2019-07-22 11:05:13 r, 00.00m,0000565849Hz,0000000000c,0000000.000s, 050.2C,00002195
2019-07-22 11:15:13 r, 00.00m,0000565878Hz,0000000000c,0000000.000s, 051.2C,00002195
2019-07-22 11:25:13 r, 00.00m,0000565821Hz,0000000000c,0000000.000s, 051.5C,00002195
2019-07-22 11:35:13 r, 00.00m,0000565898Hz,0000000000c,0000000.000s, 052.2C,00002195
2019-07-22 11:45:13 r, 00.00m,0000565940Hz,0000000000c,0000000.000s, 052.5C,00002195
2019-07-22 11:55:13 r, 00.00m,0000565898Hz,0000000000c,0000000.000s, 052.8C,00002195
2019-07-22 12:05:14 r, 00.00m,0000565916Hz,0000000000c,0000000.000s, 053.1C,00002195
2019-07-22 12:15:13 r, 00.00m,0000565969Hz,0000000000c,0000000.000s, 053.8C,00002195
2019-07-22 12:25:14 r, 00.00m,0000565972Hz,0000000000c,0000000.000s, 053.8C,00002195
2019-07-22 12:35:13 r, 00.00m,0000565990Hz,0000000000c,0000000.000s, 054.1C,00002195
2019-07-22 12:45:14 r, 00.00m,0000565959Hz,0000000000c,0000000.000s, 054.4C,00002195
2019-07-22 12:55:14 r, 00.00m,0000565960Hz,0000000000c,0000000.000s, 054.4C,00002195
2019-07-22 13:05:14 r, 00.00m,0000566028Hz,0000000000c,0000000.000s, 054.7C,00002195
2019-07-22 13:15:14 r, 00.00m,0000565991Hz,0000000000c,0000000.000s, 055.4C,00002195
2019-07-22 13:25:14 r, 00.00m,0000566041Hz,0000000000c,0000000.000s, 055.7C,00002195
2019-07-22 13:35:14 r, 00.00m,0000566011Hz,0000000000c,0000000.000s, 056.0C,00002195
2019-07-22 13:45:14 r, 00.00m,0000565970Hz,0000000000c,0000000.000s, 056.0C,00002195
2019-07-22 13:55:14 r, 00.00m,0000566030Hz,0000000000c,0000000.000s, 056.4C,00002195
2019-07-22 14:05:14 r, 00.00m,0000566095Hz,0000000000c,0000000.000s, 057.0C,00002195
2019-07-22 14:15:14 r, 00.00m,0000566016Hz,0000000000c,0000000.000s, 056.7C,00002195
2019-07-22 14:25:14 r, 00.00m,0000566055Hz,0000000000c,0000000.000s, 056.7C,00002195
2019-07-22 14:35:14 r, 00.00m,0000565953Hz,0000000000c,0000000.000s, 057.0C,00002195
2019-07-22 14:45:14 r, 00.00m,0000565957Hz,0000000000c,0000000.000s, 057.0C,00002195
2019-07-22 14:55:14 r, 00.00m,0000565971Hz,0000000000c,0000000.000s, 057.0C,00002195
2019-07-22 15:05:14 r, 00.00m,0000565978Hz,0000000000c,0000000.000s, 057.0C,00002195
2019-07-22 15:15:14 r, 00.00m,0000565997Hz,0000000000c,0000000.000s, 056.7C,00002195
2019-07-22 15:25:14 r, 00.00m,0000566022Hz,0000000000c,0000000.000s, 056.7C,00002195
2019-07-22 15:35:14 r, 00.00m,0000565965Hz,0000000000c,0000000.000s, 056.4C,00002195
2019-07-22 15:45:14 r, 00.00m,0000565984Hz,0000000000c,0000000.000s, 056.0C,00002195
2019-07-22 15:55:14 r, 00.00m,0000565891Hz,0000000000c,0000000.000s, 056.0C,00002195
2019-07-22 16:05:14 r, 00.00m,0000565867Hz,0000000000c,0000000.000s, 056.0C,00002195
2019-07-22 16:15:14 r, 00.00m,0000565921Hz,0000000000c,0000000.000s, 055.7C,00002195
2019-07-22 16:25:14 r, 00.00m,0000565842Hz,0000000000c,0000000.000s, 055.4C,00002195
2019-07-22 16:35:14 r, 00.00m,0000565873Hz,0000000000c,0000000.000s, 055.1C,00002195
2019-07-22 16:45:14 r, 00.00m,0000565842Hz,0000000000c,0000000.000s, 055.1C,00002195
2019-07-22 16:55:16 r, 00.00m,0000565839Hz,0000000000c,0000000.000s, 054.4C,00002195
2019-07-22 17:05:14 r, 00.00m,0000565814Hz,0000000000c,0000000.000s, 054.1C,00002195
2019-07-22 17:15:14 r, 00.00m,0000565727Hz,0000000000c,0000000.000s, 053.8C,00002195
2019-07-22 17:25:14 r, 00.00m,0000565797Hz,0000000000c,0000000.000s, 053.5C,00002195
2019-07-22 17:35:14 r, 00.00m,0000565607Hz,0000000000c,0000000.000s, 052.8C,00002195
2019-07-22 17:45:14 r, 00.00m,0000565625Hz,0000000000c,0000000.000s, 052.2C,00002195
2019-07-22 17:55:14 r, 00.00m,0000565481Hz,0000000000c,0000000.000s, 051.5C,00002195
2019-07-22 18:05:14 r, 00.00m,0000565501Hz,0000000000c,0000000.000s, 050.6C,00002195
2019-07-22 18:15:14 r, 00.00m,0000565441Hz,0000000000c,0000000.000s, 049.6C,00002195
2019-07-22 18:25:14 r, 00.00m,0000565387Hz,0000000000c,0000000.000s, 049.3C,00002195
2019-07-22 18:35:14 r, 00.00m,0000565357Hz,0000000000c,0000000.000s, 048.6C,00002195
2019-07-22 18:45:14 r, 00.00m,0000565286Hz,0000000000c,0000000.000s, 048.3C,00002195
2019-07-22 18:55:14 r, 00.00m,0000565256Hz,0000000000c,0000000.000s, 047.7C,00002195
2019-07-22 19:05:14 r, 00.00m,0000565168Hz,0000000000c,0000000.000s, 047.0C,00002195
2019-07-22 19:15:14 r, 00.00m,0000565251Hz,0000000000c,0000000.000s, 046.4C,00002195
2019-07-22 19:25:14 r, 00.00m,0000565095Hz,0000000000c,0000000.000s, 046.0C,00002195
2019-07-22 19:35:14 r, 00.00m,0000565106Hz,0000000000c,0000000.000s, 045.4C,00002195
2019-07-22 19:45:14 r, 00.00m,0000564972Hz,0000000000c,0000000.000s, 044.8C,00002195
2019-07-22 19:55:14 r, 00.00m,0000564997Hz,0000000000c,0000000.000s, 044.4C,00002195
2019-07-22 20:05:14 r, 00.00m,0000564885Hz,0000000000c,0000000.000s, 043.1C,00002195
2019-07-22 20:15:14 r, 00.00m,0000564821Hz,0000000000c,0000000.000s, 042.2C,00002195
2019-07-22 20:25:14 r, 00.00m,0000564752Hz,0000000000c,0000000.000s, 041.2C,00002195
2019-07-22 20:35:14 r, 00.00m,0000525348Hz,0000000000c,0000000.000s, 040.9C,00002195
2019-07-22 20:45:14 r, 00.00m,0000435834Hz,0000000000c,0000000.000s, 040.2C,00002195
2019-07-22 20:55:14 r, 06.09m,0000327467Hz,0000000000c,0000000.000s, 039.9C,00002195
2019-07-22 21:05:14 r, 06.53m,0000218931Hz,0000000000c,0000000.000s, 039.3C,00002195
2019-07-22 21:15:14 r, 07.21m,0000116359Hz,0000000000c,0000000.000s, 039.3C,00002195
2019-07-22 21:25:14 r, 08.02m,0000055237Hz,0000000000c,0000000.000s, 038.6C,00002195
2019-07-22 21:35:14 r, 08.88m,0000024924Hz,0000000000c,0000000.000s, 038.3C,00002195
2019-07-22 21:45:14 r, 10.23m,0000007230Hz,0000000000c,0000000.000s, 038.0C,00002195
2019-07-22 21:55:14 r, 11.85m,0000001618Hz,0000000000c,0000000.000s, 037.7C,00002195
2019-07-22 22:05:14 r, 13.44m,0000000373Hz,0000000000c,0000000.000s, 037.3C,00002195
2019-07-22 22:15:14 r, 15.05m,0000000085Hz,0000005472c,0000000.012s, 037.3C,00002195
2019-07-22 22:25:14 r, 16.36m,0000000026Hz,0000018208c,0000000.040s, 037.0C,00002195
2019-07-22 22:35:14 r, 17.28m,0000000011Hz,0000042192c,0000000.092s, 036.7C,00002195
2019-07-22 22:45:14 r, 17.85m,0000000007Hz,0000071571c,0000000.155s, 036.7C,00002195
2019-07-22 22:55:14 r, 18.17m,0000000004Hz,0000095948c,0000000.208s, 036.4C,00002195
2019-07-22 23:05:14 r, 18.31m,0000000004Hz,0000110466c,0000000.240s, 036.0C,00002195
2019-07-22 23:15:14 r, 18.41m,0000000004Hz,0000120133c,0000000.261s, 036.0C,00002195
2019-07-22 23:25:14 r, 18.44m,0000000003Hz,0000123690c,0000000.268s, 035.7C,00002195
2019-07-22 23:35:14 r, 18.44m,0000000004Hz,0000124145c,0000000.269s, 035.7C,00002195
2019-07-22 23:45:14 r, 18.46m,0000000004Hz,0000125977c,0000000.273s, 035.4C,00002195
2019-07-22 23:55:14 r, 18.48m,0000000003Hz,0000128423c,0000000.279s, 035.1C,00002195
